Overview Statistics Trail Chart Weather Telemetry Raw packets
 

This is the latest recevied weather packets stored in our database for station/object EW8GT-13. If no packets are shown the sender has not sent any weather packets the latest 10 day(s).

<< 1 2 3 4 5 6 >>
Time Temp. Humidity Pressure Rain* Wind** Luminosity Snow
1777731582 17.22° C 42% 1006.7 hPa - - - -
1777731221 17.78° C 42% 1006.7 hPa - - - -
1777730859 17.22° C 42% 1006.8 hPa - - - -
1777625001 9.44° C 43% 1008.1 hPa - - - -
1777624640 9.44° C 44% 1008.1 hPa - - - -
1777624278 9.44° C 43% 1008.1 hPa - - - -
1777623556 8.89° C 45% 1008.1 hPa - - - -
1777623195 8.89° C 45% 1008.2 hPa - - - -
1777622834 8.89° C 45% 1008.2 hPa - - - -
1777622472 8.89° C 45% 1008.1 hPa - - - -
1777622111 8.89° C 45% 1008.1 hPa - - - -
1777621750 8.89° C 45% 1008.1 hPa - - - -
1777621389 9.44° C 45% 1008 hPa - - - -
1777621028 9.44° C 45% 1007.9 hPa - - - -
1777381345 7.22° C 75% 1001.2 hPa - - - -
1777380984 6.67° C 75% 1001.2 hPa - - - -
1777380623 6.11° C 77% 1001.3 hPa - - - -
1777380262 5.56° C 77% 1001.2 hPa - - - -
1777379901 5.56° C 76% 1001.3 hPa - - - -
1777379540 5.56° C 81% 1001.2 hPa - - - -
1777379178 5.56° C 81% 1001.2 hPa - - - -
1777378817 5° C 82% 1001.3 hPa - - - -
1777378456 4.44° C 80% 1001.4 hPa - - - -
1777378095 6.11° C 71% 1001.6 hPa - - - -
1777377733 6.67° C 68% 1001.2 hPa - - - -

* Rain since midnight (hover to see other rain measurements)
** Current wind speed in m/s (hover to see current wind gust speed)